KC0HJX Weather Reports


Display with metric or nautical units.
time (UTC)temp
F
wind
direction
speed
MPH
gust
MPH
rain 1hr
in
rain 24hr
in
rain mn
in
humidity
%
barometer
mb
20260906201004 103 323 1.0 11.0 0.00 0.00 0.00 35 1012.5
20260906200504 102 151 4.0 11.0 0.00 0.00 0.00 34 1012.9
20260906200004 102 149 3.0 8.0 0.00 0.00 0.00 35 1012.9
20260906195525 102 100 3.0 8.0 0.00 0.00 0.00 35 1013.5
20260906195004 103 85 1.0 11.0 0.00 0.00 0.00 34 1013.1
20260906194504 104 77 4.0 11.0 0.00 0.00 0.00 32 1013.4
20260906194025 103 83 6.0 11.0 0.00 0.00 0.00 34 1013.5
20260906193504 103 114 2.0 8.0 0.00 0.00 0.00 35 1013.7
20260906193004 103 141 4.0 8.0 0.00 0.00 0.00 33 1013.5
20260906192504 103 257 2.0 7.0 0.00 0.00 0.00 34 1013.9
20260906192004 102 135 3.0 8.0 0.00 0.00 0.00 35 1013.3
20260906191504 102 126 2.0 10.0 0.00 0.00 0.00 34 1013.3
20260906191004 101 192 1.0 10.0 0.00 0.00 0.00 35 1013.2
20260906190504 100 248 2.0 7.0 0.00 0.00 0.00 38 1013.3
20260906190004 100 49 1.0 8.0 0.00 0.00 0.00 36 1013.9
20260906185504 101 85 4.0 9.0 0.00 0.00 0.00 36 1013.7
20260906185004 103 90 4.0 11.0 0.00 0.00 0.00 34 1013.9
20260906184504 103 147 4.0 11.0 0.00 0.00 0.00 35 1013.5
20260906184004 103 123 3.0 9.0 0.00 0.00 0.00 36 1014.3
20260906183504 101 57 3.0 6.0 0.00 0.00 0.00 37 1014.0
20260906183004 101 115 2.0 10.0 0.00 0.00 0.00 37 1014.2
20260906182504 101 86 1.0 11.0 0.00 0.00 0.00 38 1014.4
20260906182004 101 118 3.0 11.0 0.00 0.00 0.00 38 1014.4
20260906181525 101 98 4.0 10.0 0.00 0.00 0.00 38 1014.8
20260906181004 102 113 4.0 10.0 0.00 0.00 0.00 38 1014.4
20260906180504 102 100 2.0 10.0 0.00 0.00 0.00 38 1014.6
20260906180004 101 139 2.0 11.0 0.00 0.00 0.00 39 1014.6
20260906175504 101 148 1.0 11.0 0.00 0.00 0.00 39 1014.8
20260906175025 101 146 6.0 11.0 0.00 0.00 0.00 38 1014.7
20260906174525 100 153 2.0 9.0 0.00 0.00 0.00 39 1014.9
20260906174004 100 200 1.0 7.0 0.00 0.00 0.00 40 1015.1
20260906173504 100 197 2.0 7.0 0.00 0.00 0.00 39 1015.0
20260906173004 99 170 2.0 6.0 0.00 0.00 0.00 41 1015.2
20260906172525 99 161 2.0 6.0 0.00 0.00 0.00 40 1015.5
20260906172025 98 154 1.0 8.0 0.00 0.00 0.00 42 1015.4
20260906171504 97 278 1.0 8.0 0.00 0.00 0.00 43 1015.2
20260906171004 97 231 1.0 4.0 0.00 0.00 0.00 42 1015.5
20260906170504 98 259 1.0 4.0 0.00 0.00 0.00 43 1016.0
20260906170003 98 246 2.0 7.0 0.00 0.00 0.00 43 1015.7
20260906165503 97 218 0.0 7.0 0.00 0.00 0.00 43 1015.8
20260906165004 96 137 4.0 7.0 0.00 0.00 0.00 43 1015.8
20260906164504 96 154 2.0 4.0 0.00 0.00 0.00 46 1016.0
20260906164004 96 271 0.0 6.0 0.00 0.00 0.00 46 1016.0
20260906163504 97 271 1.0 6.0 0.00 0.00 0.00 43 1015.7
20260906163004 98 173 2.0 6.0 0.00 0.00 0.00 41 1015.6
20260906162504 98 175 0.0 3.0 0.00 0.00 0.00 45 1015.6
20260906162004 98 268 1.0 3.0 0.00 0.00 0.00 43 1015.3
20260906161504 97 223 0.0 4.0 0.00 0.00 0.00 47 1015.5
20260906161004 96 239 0.0 4.0 0.00 0.00 0.00 45 1015.7
20260906160504 95 201 1.0 3.0 0.00 0.00 0.00 48 1015.7
20260906160004 95 271 1.0 3.0 0.00 0.00 0.00 45 1015.9
20260906155504 95 165 1.0 3.0 0.00 0.00 0.00 47 1016.0
20260906155004 94 258 1.0 4.0 0.00 0.00 0.00 48 1015.5
20260906154525 93 253 1.0 4.0 0.00 0.00 0.00 48 1015.5
20260906154004 93 189 1.0 3.0 0.00 0.00 0.00 50 1015.4
20260906153504 93 205 1.0 3.0 0.00 0.00 0.00 52 1015.6
20260906153004 93 204 1.0 4.0 0.00 0.00 0.00 52 1015.6
20260906152525 93 258 0.0 6.0 0.00 0.00 0.00 50 1016.1
20260906152004 92 216 1.0 6.0 0.00 0.00 0.00 52 1015.3
20260906151504 92 144 1.0 6.0 0.00 0.00 0.00 53 1015.3
20260906151004 91 161 1.0 2.0 0.00 0.00 0.00 56 1015.7
20260906150504 88 208 0.0 1.0 0.00 0.00 0.00 58 1015.5
20260906150004 88 166 0.0 2.0 0.00 0.00 0.00 59 1015.6
20260906145504 87 135 0.0 3.0 0.00 0.00 0.00 59 1015.8
20260906145004 87 245 1.0 3.0 0.00 0.00 0.00 59 1015.3
20260906144504 86 278 0.0 4.0 0.00 0.00 0.00 61 1015.8
20260906144004 86 235 0.0 4.0 0.00 0.00 0.00 62 1015.7
20260906143503 86 246 2.0 4.0 0.00 0.00 0.00 62 1015.4
20260906143004 85 232 1.0 4.0 0.00 0.00 0.00 63 1015.5
20260906142504 84 215 0.0 3.0 0.00 0.00 0.00 63 1015.4
20260906142004 84 233 2.0 3.0 0.00 0.00 0.00 63 1015.3
20260906141504 83 248 1.0 3.0 0.00 0.00 0.00 66 1015.2
20260906141004 83 242 0.0 3.0 0.00 0.00 0.00 66 1015.2
20260906140504 82 243 1.0 3.0 0.00 0.00 0.00 67 1015.0
20260906140004 81 237 1.0 3.0 0.00 0.00 0.00 69 1015.5
20260906135504 80 240 1.0 3.0 0.00 0.00 0.00 71 1015.2
20260906135003 80 0 0.0 1.0 0.00 0.00 0.00 74 1015.0
20260906134504 79 203 1.0 1.0 0.00 0.00 0.00 76 1015.0
20260906134004 78 165 0.0 1.0 0.00 0.00 0.00 78 1015.5
20260906133504 77 0 0.0 0.0 0.00 0.00 0.00 82 1014.9
20260906133004 76 0 0.0 0.0 0.00 0.00 0.00 83 1014.9
20260906132504 76 0 0.0 0.0 0.00 0.00 0.00 85 1015.1
20260906132004 76 0 0.0 0.0 0.00 0.00 0.00 84 1015.0
20260906131504 75 0 0.0 0.0 0.00 0.00 0.00 85 1015.3
20260906131004 75 0 0.0 0.0 0.00 0.00 0.00 85 1014.8
20260906130504 75 0 0.0 0.0 0.00 0.00 0.00 86 1015.0
20260906130025 74 0 0.0 0.0 0.00 0.00 0.00 86 1015.0
20260906125504 74 0 0.0 0.0 0.00 0.00 0.00 87 1014.9
20260906125004 74 0 0.0 0.0 0.00 0.00 0.00 86 1014.8
20260906124504 73 0 0.0 0.0 0.00 0.00 0.00 86 1014.6
20260906124004 73 0 0.0 0.0 0.00 0.00 0.00 86 1014.8
20260906123504 73 0 0.0 0.0 0.00 0.00 0.00 86 1014.2
20260906123004 73 0 0.0 0.0 0.00 0.00 0.00 86 1014.6
20260906122503 73 0 0.0 0.0 0.00 0.00 0.00 86 1014.6
20260906122004 73 0 0.0 0.0 0.00 0.00 0.00 85 1014.8
20260906121504 73 0 0.0 0.0 0.00 0.00 0.00 85 1014.2
20260906121025 73 0 0.0 0.0 0.00 0.00 0.00 85 1014.4
20260906120504 73 0 0.0 0.0 0.00 0.00 0.00 85 1014.5
20260906120004 73 0 0.0 0.0 0.00 0.00 0.00 85 1014.6
20260906115525 73 0 0.0 0.0 0.00 0.00 0.00 85 1014.4
20260906115004 73 0 0.0 0.0 0.00 0.00 0.00 85 1014.3
20260906114525 73 0 0.0 0.0 0.00 0.00 0.00 85 1014.6
20260906114004 73 0 0.0 0.0 0.00 0.00 0.00 85 1013.9
20260906113503 73 0 0.0 0.0 0.00 0.00 0.00 85 1014.2
20260906113004 73 0 0.0 0.0 0.00 0.00 0.00 85 1014.2
20260906112504 73 0 0.0 0.0 0.00 0.00 0.00 85 1013.7
20260906112004 73 0 0.0 0.0 0.00 0.00 0.00 85 1014.0
20260906111504 73 0 0.0 0.0 0.00 0.00 0.00 85 1014.3
20260906111004 73 0 0.0 0.0 0.00 0.00 0.00 84 1013.7
20260906110504 73 0 0.0 0.0 0.00 0.00 0.00 84 1013.7
20260906110004 74 0 0.0 0.0 0.00 0.00 0.00 84 1013.6
20260906105525 74 0 0.0 0.0 0.00 0.00 0.00 85 1013.5
20260906105004 74 0 0.0 0.0 0.00 0.00 0.00 84 1013.8
20260906104504 74 0 0.0 0.0 0.00 0.00 0.00 84 1013.9
20260906104004 74 0 0.0 0.0 0.00 0.00 0.00 83 1013.8
20260906103504 74 0 0.0 0.0 0.00 0.00 0.00 83 1013.7
20260906103004 74 0 0.0 0.0 0.00 0.00 0.00 83 1013.8
20260906102525 74 0 0.0 0.0 0.00 0.00 0.00 84 1014.0
20260906102004 74 0 0.0 0.0 0.00 0.00 0.00 84 1014.0
20260906101504 74 0 0.0 0.0 0.00 0.00 0.00 82 1013.6
20260906101004 74 0 0.0 0.0 0.00 0.00 0.00 82 1013.7
20260906100504 74 0 0.0 1.0 0.00 0.00 0.00 82 1013.6
20260906100025 74 100 0.0 1.0 0.00 0.00 0.00 83 1013.5
20260906095504 74 0 0.0 1.0 0.00 0.00 0.00 82 1013.5
20260906095004 74 0 0.0 0.0 0.00 0.00 0.00 82 1013.7
20260906094504 74 0 0.0 0.0 0.00 0.00 0.00 82 1013.4
20260906094004 74 0 0.0 0.0 0.00 0.00 0.00 82 1013.3
20260906093504 74 0 0.0 0.0 0.00 0.00 0.00 82 1013.5
20260906093025 74 0 0.0 0.0 0.00 0.00 0.00 82 1012.9
20260906092504 75 0 0.0 0.0 0.00 0.00 0.00 82 1013.4
20260906092004 75 0 0.0 0.0 0.00 0.00 0.00 81 1013.6
20260906091504 75 0 0.0 0.0 0.00 0.00 0.00 81 1013.4
20260906091004 75 0 0.0 0.0 0.00 0.00 0.00 81 1013.9
20260906090504 75 0 0.0 0.0 0.00 0.00 0.00 81 1013.3
20260906090004 75 0 0.0 0.0 0.00 0.00 0.00 81 1013.8
20260906085504 75 0 0.0 0.0 0.00 0.00 0.00 81 1013.4
20260906085004 75 0 0.0 0.0 0.00 0.00 0.00 81 1013.4
20260906084504 75 0 0.0 0.0 0.00 0.00 0.00 81 1013.3
20260906084004 75 0 0.0 0.0 0.00 0.00 0.00 80 1013.5
20260906083504 75 0 0.0 0.0 0.00 0.00 0.00 80 1013.4
20260906083025 75 0 0.0 0.0 0.00 0.00 0.00 80 1013.2
20260906082504 75 0 0.0 0.0 0.00 0.00 0.00 80 1013.2
20260906082004 75 0 0.0 0.0 0.00 0.00 0.00 80 1013.2
20260906081504 75 0 0.0 0.0 0.00 0.00 0.00 79 1013.3
20260906081004 76 0 0.0 0.0 0.00 0.00 0.00 79 1013.3
20260906080504 76 0 0.0 0.0 0.00 0.00 0.00 79 1013.1
20260906080004 76 0 0.0 0.0 0.00 0.00 0.00 78 1013.2
20260906075504 76 0 0.0 0.0 0.00 0.00 0.00 78 1013.0
20260906075004 76 0 0.0 0.0 0.00 0.00 0.00 78 1013.1
20260906074504 76 0 0.0 0.0 0.00 0.00 0.00 77 1013.2
20260906074025 76 0 0.0 0.0 0.00 0.00 0.00 77 1013.3
20260906073504 76 0 0.0 0.0 0.00 0.00 0.00 77 1013.2
20260906073025 76 0 0.0 0.0 0.00 0.00 0.00 77 1013.4
20260906072504 76 0 0.0 0.0 0.00 0.00 0.00 77 1013.4
20260906072004 76 0 0.0 0.0 0.00 0.00 0.00 76 1013.4
20260906071504 77 0 0.0 0.0 0.00 0.00 0.00 76 1013.4
20260906071004 77 0 0.0 0.0 0.00 0.00 0.00 76 1013.2
20260906070504 77 0 0.0 0.0 0.00 0.00 0.00 76 1013.3
20260906070004 77 0 0.0 0.0 0.00 0.00 0.00 76 1013.5
20260906065504 77 0 0.0 0.0 0.00 0.00 0.00 75 1013.4
20260906065004 77 0 0.0 0.0 0.00 0.00 0.00 74 1013.6
20260906064525 77 0 0.0 0.0 0.00 0.00 0.00 74 1013.3
20260906064004 77 0 0.0 0.0 0.00 0.00 0.00 74 1013.0
20260906063525 77 0 0.0 0.0 0.00 0.00 0.00 74 1013.3
20260906063004 78 0 0.0 0.0 0.00 0.00 0.00 73 1013.3
20260906062504 78 0 0.0 0.0 0.00 0.00 0.00 73 1013.4
20260906062004 78 0 0.0 0.0 0.00 0.00 0.00 72 1013.5
20260906061525 78 0 0.0 1.0 0.00 0.00 0.00 72 1013.5
20260906061004 78 0 0.0 1.0 0.00 0.00 0.00 73 1013.4
20260906060504 78 100 0.0 1.0 0.00 0.00 0.00 72 1013.5
20260906060004 78 0 0.0 0.0 0.00 0.00 0.00 72 1013.2
20260906055504 78 0 0.0 0.0 0.00 0.00 0.00 72 1013.4
20260906055004 79 0 0.0 0.0 0.00 0.00 0.00 71 1013.2
20260906054504 79 0 0.0 0.0 0.00 0.00 0.00 71 1013.5
20260906054004 79 0 0.0 0.0 0.00 0.00 0.00 71 1013.1
20260906053504 79 0 0.0 2.0 0.00 0.00 0.00 71 1013.5
20260906053004 79 0 0.0 2.0 0.00 0.00 0.00 71 1013.2
20260906052503 79 113 1.0 2.0 0.00 0.00 0.00 72 1012.7
20260906052004 79 111 1.0 2.0 0.00 0.00 0.00 72 1013.2
20260906051504 79 0 0.0 0.0 0.00 0.00 0.00 71 1013.0
20260906051004 79 0 0.0 0.0 0.00 0.00 0.00 71 1012.9
20260906050525 80 0 0.0 0.0 0.00 0.00 0.00 71 1013.0
20260906050005 80 0 0.0 0.0 0.00 0.00 0.00 69 1013.0
20260906045504 80 0 0.0 0.0 0.00 0.00 0.00 69 1012.8
20260906045004 80 0 0.0 0.0 0.00 0.00 0.00 69 1013.0
20260906044504 80 0 0.0 0.0 0.00 0.00 0.00 69 1013.1
20260906044004 81 0 0.0 0.0 0.00 0.00 0.00 66 1013.0
20260906043504 81 0 0.0 0.0 0.00 0.00 0.00 66 1013.2
20260906043004 81 0 0.0 0.0 0.00 0.00 0.00 67 1013.0
20260906042525 81 0 0.0 0.0 0.00 0.00 0.00 67 1012.7
20260906042004 81 0 0.0 0.0 0.00 0.00 0.00 65 1012.8
20260906041504 81 0 0.0 0.0 0.00 0.00 0.00 64 1012.9
20260906041025 82 0 0.0 0.0 0.00 0.00 0.00 64 1012.9
20260906040504 82 0 0.0 0.0 0.00 0.00 0.00 64 1013.0
20260906040004 82 0 0.0 0.0 0.00 0.00 0.00 64 1012.9
20260906035525 82 0 0.0 0.0 0.00 0.00 0.00 64 1013.1
20260906035004 82 0 0.0 0.0 0.00 0.00 0.00 64 1013.3
20260906034504 82 0 0.0 0.0 0.00 0.00 0.00 65 1013.1
20260906034004 82 0 0.0 0.0 0.00 0.00 0.00 65 1013.2
20260906033504 82 0 0.0 0.0 0.00 0.00 0.00 63 1012.9
20260906033025 83 0 0.0 0.0 0.00 0.00 0.00 63 1012.9
20260906032504 83 0 0.0 0.0 0.00 0.00 0.00 63 1012.8
20260906032025 83 0 0.0 0.0 0.00 0.00 0.00 62 1013.2
20260906031525 83 0 0.0 0.0 0.00 0.00 0.00 62 1013.1
20260906031025 83 0 0.0 0.0 0.00 0.00 0.00 62 1012.9
20260906030504 84 0 0.0 0.0 0.00 0.00 0.00 61 1012.9
20260906030004 84 0 0.0 0.0 0.00 0.00 0.00 61 1012.9
20260906025525 84 0 0.0 0.0 0.00 0.00 0.00 61 1012.7
20260906025004 84 0 0.0 0.0 0.00 0.00 0.00 61 1012.9
20260906024504 84 0 0.0 0.0 0.00 0.00 0.00 60 1013.0
20260906024004 85 0 0.0 0.0 0.00 0.00 0.00 60 1012.6
20260906023504 85 0 0.0 0.0 0.00 0.00 0.00 58 1012.6
20260906023004 85 0 0.0 0.0 0.00 0.00 0.00 57 1012.5
20260906022504 86 0 0.0 0.0 0.00 0.00 0.00 57 1012.6
20260906022004 86 0 0.0 0.0 0.00 0.00 0.00 56 1012.6
20260906021525 86 0 0.0 0.0 0.00 0.00 0.00 56 1012.5
20260906021004 86 0 0.0 0.0 0.00 0.00 0.00 56 1012.5
20260906020504 86 0 0.0 0.0 0.00 0.00 0.00 55 1012.3
20260906020004 87 0 0.0 0.0 0.00 0.00 0.00 55 1012.3
20260906015504 87 0 0.0 0.0 0.00 0.00 0.00 55 1012.3
20260906015004 87 0 0.0 0.0 0.00 0.00 0.00 54 1012.5
20260906014504 88 0 0.0 0.0 0.00 0.00 0.00 53 1012.0
20260906014004 88 0 0.0 0.0 0.00 0.00 0.00 53 1012.1
20260906013504 89 0 0.0 0.0 0.00 0.00 0.00 52 1012.0
20260906013004 89 0 0.0 0.0 0.00 0.00 0.00 51 1012.2
20260906012504 90 0 0.0 0.0 0.00 0.00 0.00 50 1012.4
20260906012004 90 0 0.0 0.0 0.00 0.00 0.00 50 1012.1
20260906011504 90 0 0.0 0.0 0.00 0.00 0.00 48 1012.0
20260906011004 91 0 0.0 0.0 0.00 0.00 0.00 47 1012.0
20260906010504 92 0 0.0 0.0 0.00 0.00 0.00 47 1011.9
20260906010004 92 0 0.0 1.0 0.00 0.00 0.00 45 1011.9
20260906005504 92 0 0.0 1.0 0.00 0.00 0.00 45 1011.8
20260906005025 93 153 0.0 2.0 0.00 0.00 0.00 44 1012.1
20260906004504 94 150 0.0 2.0 0.00 0.00 0.00 44 1012.0
20260906004004 94 159 0.0 1.0 0.00 0.00 0.00 43 1011.8
20260906003504 95 0 0.0 0.0 0.00 0.00 0.00 42 1011.7
20260906003004 95 0 0.0 3.0 0.00 0.00 0.00 42 1012.2
20260906002504 95 129 0.0 3.0 0.00 0.00 0.00 41 1011.7
20260906002004 96 148 1.0 3.0 0.00 0.00 0.00 40 1011.9
20260906001525 96 139 1.0 3.0 0.00 0.00 0.00 40 1011.8
20260906001025 96 142 2.0 3.0 0.00 0.00 0.00 40 1012.0
20260906000504 97 116 1.0 4.0 0.00 0.00 0.00 40 1011.5
20260906000025 97 135 1.0 6.0 0.00 0.00 0.00 39 1011.5
20260905235504 97 122 1.0 7.0 0.00 0.00 0.00 38 1011.3
20260905235004 97 130 3.0 7.0 0.00 0.00 0.00 38 1011.9
20260905234504 97 133 3.0 7.0 0.00 0.00 0.00 38 1011.8
20260905234004 97 134 2.0 8.0 0.00 0.00 0.00 39 1011.6
20260905233504 97 121 2.0 8.0 0.00 0.00 0.00 38 1011.7
20260905233004 97 124 1.0 7.0 0.00 0.00 0.00 38 1011.6
20260905232504 98 124 3.0 6.0 0.00 0.00 0.00 38 1011.5
20260905232025 98 131 2.0 4.0 0.00 0.00 0.00 37 1011.5
20260905231504 98 157 0.0 8.0 0.00 0.00 0.00 38 1011.1
20260905231004 98 113 1.0 8.0 0.00 0.00 0.00 38 1011.0
20260905230525 97 139 3.0 8.0 0.00 0.00 0.00 37 1011.5
20260905230004 97 147 1.0 7.0 0.00 0.00 0.00 38 1011.3
20260905225504 98 116 1.0 7.0 0.00 0.00 0.00 38 1011.3
20260905225025 98 122 2.0 8.0 0.00 0.00 0.00 38 1011.5
20260905224504 98 125 2.0 8.0 0.00 0.00 0.00 37 1011.3
20260905224004 99 150 3.0 8.0 0.00 0.00 0.00 37 1011.5
20260905223504 99 166 4.0 8.0 0.00 0.00 0.00 36 1011.1
20260905223025 99 117 2.0 8.0 0.00 0.00 0.00 36 1011.5
20260905222504 99 218 2.0 8.0 0.00 0.00 0.00 37 1011.2
20260905222004 100 116 3.0 8.0 0.00 0.00 0.00 36 1011.1
20260905221504 100 131 4.0 8.0 0.00 0.00 0.00 35 1011.1
20260905221004 100 149 3.0 11.0 0.00 0.00 0.00 35 1011.4
20260905220504 101 131 4.0 11.0 0.00 0.00 0.00 34 1011.3
20260905220004 102 182 2.0 9.0 0.00 0.00 0.00 35 1011.4
20260905215504 102 167 2.0 9.0 0.00 0.00 0.00 34 1011.6
20260905215004 102 137 4.0 9.0 0.00 0.00 0.00 34 1010.9
20260905214504 102 170 1.0 9.0 0.00 0.00 0.00 34 1011.5
20260905214004 102 257 2.0 13.0 0.00 0.00 0.00 34 1011.4
20260905213504 102 133 5.0 13.0 0.00 0.00 0.00 35 1011.9
20260905213004 102 114 3.0 7.0 0.00 0.00 0.00 33 1011.8
20260905212504 102 246 2.0 7.0 0.00 0.00 0.00 35 1011.9
20260905212004 102 103 3.0 7.0 0.00 0.00 0.00 33 1012.0
20260905211504 102 233 1.0 7.0 0.00 0.00 0.00 33 1012.2
20260905211004 102 193 2.0 7.0 0.00 0.00 0.00 34 1012.3
20260905210525 102 230 2.0 10.0 0.00 0.00 0.00 33 1012.0
20260905210004 102 132 3.0 10.0 0.00 0.00 0.00 33 1012.3
20260905205504 102 193 2.0 9.0 0.00 0.00 0.00 35 1012.6
20260905205004 103 115 3.0 13.0 0.00 0.00 0.00 33 1011.9
20260905204525 103 129 3.0 13.0 0.00 0.00 0.00 33 1012.1
20260905204004 103 149 3.0 11.0 0.00 0.00 0.00 33 1012.3
20260905203504 103 148 3.0 9.0 0.00 0.00 0.00 33 1012.6
20260905203004 102 213 2.0 8.0 0.00 0.00 0.00 34 1012.9
20260905202504 102 202 3.0 8.0 0.00 0.00 0.00 36 1012.8
20260905202004 102 227 1.0 15.0 0.00 0.00 0.00 35 1012.8
20260905201504 102 152 4.0 15.0 0.00 0.00 0.00 36 1012.9